Regional Weather Roundup
Issued by NWS

Home | Current Version | Previous Version | Graphics & Text | Print | Product List | Glossary Off
Versions: 1 2 3 4 5 6 7 8 9 10 11 12 13 14 15 16 17 18 19 20 21 22 23 24 25 26 27 28 29 30 31 32 33 34 35 36 37 38 39 40 41 42 43 44 45 46 47 48 49 50

000
ASUS43 KDTX 250501
RWRMI
MICHIGAN HOURLY REGIONAL WEATHER ROUNDUP
NATIONAL WEATHER SERVICE DETROIT/PONTIAC MI
100 AM EDT SAT APR 25 2015

NOTE: "FAIR" INDICATES FEW OR NO CLOUDS BELOW 12,000 FEET WITH NO
SIGNIFICANT WEATHER AND/OR OBSTRUCTION TO VISIBILITY.

MIZ047>049-052>055-059>063-066>070-074>076-081>083-250600-
SOUTHEAST LOWER MICHIGAN

CITY           SKY/WX    TMP DP  RH WIND       PRES   REMARKS
ADRIAN         LGT RAIN  44  38  79 NE13      30.00S
ALMA           CLOUDY    39  32  77 NE9       30.02R WCI  33
ANN ARBOR      LGT RAIN  43  33  68 SW3       30.01R
BAD AXE        CLOUDY    32  23  69 CALM      30.04R
CARO           CLOUDY    35  20  55 CALM      30.02R
DETROIT CITY   CLOUDY    39  29  67 NE6       30.02R WCI  35
DETROIT        CLOUDY    44  29  55 SE3       30.03R
FLINT          CLOUDY    39  24  55 E10       30.01R WCI  32
GROSSE ILE     RAIN      43  34  70 CALM      30.01R
HILLSDALE      DRIZZLE   46  35  65 NE10      29.97S
HOWELL         CLOUDY    46  28  48 SE7       29.99R

CITY           SKY/WX    TMP DP  RH WIND       PRES   REMARKS
JACKSON        LGT RAIN  43  37  79 S5        30.00R
LAMBERTVILLE   CLOUDY    46  32  57 NE3       30.00S
LANSING        LGT RAIN  46  34  62 E6        30.00R
LAPEER         FAIR      34  21  58 E5        30.01S WCI  30
MASON          LGT RAIN  47  29  48 SW8       29.99R
MONROE         DRIZZLE   45  36  70 CALM      30.01R
PONTIAC        CLOUDY    38  25  59 E5        30.00R WCI  34
PORT HOPE        N/A     35  24  64 E9        30.02F WCI  28
PORT HURON     CLOUDY    36  21  55 NE6       30.02S WCI  31
TRI CITIES     CLOUDY    38  23  55 E8        30.02R WCI  32
TROY           CLOUDY    39  24  56 NE7       30.03R WCI  34
SAGINAW HB     CLOUDY    36  21  55 E7        30.02R WCI  30
$$
MIZ043>046-050>051-056>058-064>065-071>073-077>080-250600-
SOUTHWEST LOWER MICHIGAN

CITY           SKY/WX    TMP DP  RH WIND       PRES   REMARKS
BATTLE CREEK   LGT RAIN  41  37  86 NE9       29.98F
BENTON HARBOR  CLOUDY    43  39  86 E10       29.93S
BIG RAPIDS     CLOUDY    42  18  36 CALM      29.99R
COLDWATER      CLOUDY    43  37  79 NE9       29.97R
FREMONT        CLOUDY    43  32  66 CALM      29.99S
HOLLAND        LGT RAIN  43  38  82 E8        29.99F
GRAND RAPIDS   CLOUDY    45  35  68 SW7       29.99S
IONIA          CLOUDY    48  31  52 E5        29.98S
KALAMAZOO      CLOUDY    42  37  82 NE10      29.96F
LUDINGTON      CLOUDY    43  22  44 CALM      30.00S
MARSHALL       MIX PCPN  40  37  91 CALM      29.99F
MOUNT PLEASANT CLOUDY    37  30  74 NE6       30.01R WCI  33
MUSKEGON       LGT RAIN  42  35  76 CALM      30.00S
SOUTH HAVEN    CLOUDY    43  38  85 E9        29.95R
$$
MIZ016>042-250600-
NORTHERN LOWER MICHIGAN

CITY           SKY/WX    TMP DP  RH WIND       PRES   REMARKS
ALPENA         CLEAR     26  18  71 N3        30.04S
BEAVER ISLAND  MOCLDY    28  23  80 CALM      30.03F
BELLAIRE       MOCLDY    36  19  51 NE3       30.03R
CADILLAC       CLOUDY    37  16  42 NE3       29.98S
CHARLEVOIX     PTCLDY    33  22  62 CALM      30.06R
FRANKFORT      CLOUDY    43  10  26 E8        29.99S
GAYLORD        PTCLDY    30  18  60 CALM      30.00S
GRAYLING       MOCLDY    34  19  52 NE3       30.01S
HARBOR SPRINGS PTCLDY    28  19  69 NE5       30.03S WCI  23
HOUGHTON LAKE  CLOUDY    35  20  54 SE5       30.01R WCI  31
MANISTEE       CLOUDY    39  16  38 SE3       30.01R
OSCODA         MOCLDY    27  22  82 SW5       30.03R WCI  22
PELLSTON       CLEAR     22  17  81 CALM      30.04S
ROGERS CITY    CLEAR     27  22  79 CALM      30.05S
TRAVERSE CITY  CLOUDY    38  26  62 NE5       30.01R WCI  34
$$
MIZ007>008-015-250600-
EASTERN UPPER MICHIGAN

CITY           SKY/WX    TMP DP  RH WIND       PRES   REMARKS
KINROSS        CLEAR     25  21  86 W3        30.04S
MACKINAC ISLAN CLEAR     29  19  66 N7        30.03S WCI  22
NEWBERRY       CLEAR     27  19  73 N8        30.04S WCI  18
S. S. MARIE    CLEAR     25  19  78 SW7       30.03S WCI  17
$$
MIZ004>006-011>014-085-250600-
CENTRAL UPPER MICHIGAN

CITY           SKY/WX    TMP DP  RH WIND       PRES   REMARKS
MANISTIQUE     CLOUDY    31  28  88 CALM      30.03S
ESCANABA       CLOUDY    37  25  60 NE6       30.03S WCI  33
MENOMINEE      CLOUDY    37  25  60 N3        30.01S
SAWYER-GWINN   CLOUDY    31  18  59 N3        30.02R
$$
MIZ001>003-009>011-084-250600-
WESTERN UPPER MICHIGAN

CITY           SKY/WX    TMP DP  RH WIND       PRES   REMARKS
IRON MOUNTAIN  CLOUDY    38  23  55 SE3       29.99R
HOUGHTON       CLOUDY    31  22  69 E7        30.01S WCI  24
COPPER HARBOR    N/A     31  24  75 CALM      30.05R
IRONWOOD       CLOUDY    39  25  56 E9        29.92S WCI  33
$$

ABBREVIATIONS USED IN REMARKS
   TC - TEMPERATURE IN CELSIUS
  WCI - WIND CHILL INDEX
   HX - HEAT INDEX
  VSB - VISIBILITY




USA.gov is the U.S. government's official web portal to all federal, state and local government web resources and services.